Friday Harbor, WA

7:32 AM PST on February 19, 2017 (GMT -0800)
Friday Harbor

Weather History for KFHR - April, 2013

Change the Weather History Date:

Saturday, April 13, 2013

  Actual Average Record
Temperature  
Mean Temperature 43 °F -  
Max Temperature 50 °F 53 °F 63 °F (2014)
Min Temperature 35 °F 37 °F 30 °F (2001)
Degree Days  
Heating Degree Days 22    
Moisture  
Dew Point 37 °F    
Average Humidity 84    
Maximum Humidity 97    
Minimum Humidity 73    
Precipitation  
Precipitation 0.20 in - - ()
Sea Level Pressure  
Sea Level Pressure 29.87 in    
Wind  
Wind Speed 5 mph (SW)    
Max Wind Speed 15 mph    
Max Gust Speed 23 mph    
Visibility 9 miles    
Events Rain    
Averages and records for this station are not official NWS values.
T = Trace of Precipitation, MM = Missing Value Source: NWS Daily Summary

Daily Weather History Graph

Daily Weather History Graph

Search for Another Location

Airport or City:

Trip Planner

Search our weather history database for the weather conditions in past years. The results will help you decide how hot, cold, wet, or windy it might be!

Date:

Astronomy

Apr. 13, 2013 Rise Set
Actual Time 6:24 AM PDT 8:00 PM PDT
Civil Twilight 5:52 AM PDT 8:33 PM PDT
Nautical Twilight 5:12 AM PDT 9:14 PM PDT
Astronomical Twilight 4:28 AM PDT 9:58 PM PDT
Moon 8:07 AM PDT (4/13) 11:44 PM PDT (4/13)
Length of Visible Light 14h 41m
Length of Day
13h 35m
Waxing Crescent, 11% of the Moon is Illuminated
Apr 13
Waxing Crescent
Apr 18
First Quarter
Apr 25
Full
May 2
Last Quarter
May 9
New

Hourly Weather History & Observations

Time (PDT) Temp. Windchill Dew Point Humidity Pressure Visibility Wind Dir Wind Speed Gust Speed Precip Events Conditions
12:53 AM 39.0 °F 32.8 °F 30.9 °F 73% 29.76 in 10.0 mi WSW 9.2 mph - N/A   Clear
1:53 AM 39.0 °F 35.7 °F 30.9 °F 73% 29.79 in 10.0 mi Variable 4.6 mph - N/A   Clear
2:53 AM 37.9 °F - 33.1 °F 83% 29.80 in 10.0 mi Calm Calm - N/A   Scattered Clouds
3:53 AM 37.9 °F 32.1 °F 32.0 °F 79% 29.82 in 9.0 mi SW 8.1 mph 16.1 mph N/A   Clear
4:53 AM 39.9 °F 34.5 °F 32.0 °F 73% 29.83 in 10.0 mi SW 8.1 mph 17.3 mph N/A   Overcast
5:53 AM 39.9 °F 35.8 °F 33.1 °F 77% 29.84 in 10.0 mi SW 5.8 mph - N/A   Overcast
6:53 AM 39.9 °F - 35.1 °F 83% 29.84 in 10.0 mi Calm Calm - N/A   Mostly Cloudy
7:05 AM 39.2 °F - 35.6 °F 87% 29.83 in 10.0 mi Calm Calm - N/A   Overcast
7:29 AM 41.0 °F 37.1 °F 35.6 °F 81% 29.83 in 10.0 mi Variable 5.8 mph - N/A   Mostly Cloudy
7:53 AM 39.9 °F 33.9 °F 35.1 °F 83% 29.84 in 10.0 mi SSW 9.2 mph 21.9 mph N/A   Mostly Cloudy
8:44 AM 39.2 °F 34.2 °F 35.6 °F 87% 29.84 in 8.0 mi SSW 6.9 mph - 0.00 in Rain Light Rain
8:53 AM 39.9 °F 35.1 °F 37.0 °F 89% 29.84 in 6.0 mi SSW 6.9 mph - 0.01 in Rain Light Rain
9:53 AM 41.0 °F 35.2 °F 37.0 °F 86% 29.85 in 10.0 mi South 9.2 mph 19.6 mph 0.00 in   Overcast
10:53 AM 43.0 °F 37.7 °F 37.9 °F 82% 29.86 in 10.0 mi SSW 9.2 mph - N/A   Overcast
11:53 AM 46.9 °F - 39.9 °F 77% 29.86 in 10.0 mi SSW 11.5 mph 18.4 mph N/A   Overcast
12:13 PM 46.4 °F 40.1 °F 39.2 °F 76% 29.85 in 10.0 mi SW 15.0 mph 23.0 mph N/A   Overcast
12:44 PM 44.6 °F 43.1 °F 39.2 °F 81% 29.86 in 2.5 mi Variable 3.5 mph - 0.02 in Rain Rain
12:51 PM 42.8 °F 40.1 °F 37.4 °F 81% 29.86 in 0.8 mi Variable 4.6 mph - 0.14 in Rain Heavy Rain
12:52 PM 42.1 °F 40.2 °F 37.0 °F 82% 29.86 in 0.8 mi Variable 3.5 mph - 0.15 in Rain Heavy Rain
1:03 PM 39.2 °F 37.0 °F 37.4 °F 93% 29.86 in 2.0 mi SSW 3.5 mph - 0.04 in Rain Light Rain
1:10 PM 41.0 °F - 39.2 °F 93% 29.86 in 9.0 mi Calm Calm - 0.04 in Rain Light Rain
1:20 PM 42.8 °F - 39.2 °F 87% 29.86 in 10.0 mi Calm Calm - 0.04 in   Overcast
1:53 PM 50.0 °F - 45.0 °F 83% 29.86 in 10.0 mi SSW 8.1 mph - 0.04 in   Mostly Cloudy
2:21 PM 44.6 °F - 41.0 °F 87% 29.88 in 10.0 mi Calm Calm - 0.00 in Rain Light Rain
2:43 PM 46.4 °F 44.3 °F 41.0 °F 81% 29.88 in 10.0 mi SSW 4.6 mph - 0.00 in   Overcast
2:53 PM 46.0 °F 44.8 °F 41.0 °F 83% 29.88 in 10.0 mi SW 3.5 mph - 0.00 in   Mostly Cloudy
3:53 PM 46.0 °F 44.8 °F 41.0 °F 83% 29.90 in 10.0 mi WSW 3.5 mph - 0.00 in Rain Light Rain
5:53 PM 44.1 °F 42.5 °F 39.0 °F 82% 29.92 in 10.0 mi WSW 3.5 mph - N/A   Overcast
6:53 PM 43.0 °F 40.3 °F 39.0 °F 86% 29.94 in 10.0 mi Variable 4.6 mph - N/A   Overcast
7:53 PM 41.0 °F - 39.0 °F 93% 29.94 in 10.0 mi Calm Calm - N/A   Clear
8:53 PM 37.9 °F - 37.0 °F 97% 29.97 in 10.0 mi Calm Calm - N/A   Partly Cloudy
9:53 PM 37.9 °F - 36.0 °F 93% 29.98 in 10.0 mi Calm Calm - N/A   Mostly Cloudy
10:53 PM 36.0 °F - 35.1 °F 97% 29.99 in 9.0 mi Calm Calm - N/A   Scattered Clouds
11:53 PM 35.1 °F - 34.0 °F 96% 29.99 in 9.0 mi Calm Calm - N/A   Mostly Cloudy